Time,TemperatureF,DewpointF,PressureIn,WindDirection,WindDirectionDegrees,WindSpeedMPH,WindSpeedGustMPH,Humidity,HourlyPrecipIn,Conditions,Clouds,dailyrainin,SoftwareType,DateUTC
2013-01-22 00:02:00,34.0,6.0,-100.00,NNW,335,5.0,18.0,29,-99.99,,,-99.99,,2013-01-22 07:02:00,
2013-01-22 00:12:00,35.0,5.0,-100.00,East,100,4.0,24.0,28,-99.99,,,-99.99,,2013-01-22 07:12:00,
2013-01-22 00:22:00,34.0,5.0,-100.00,WNW,285,4.0,14.0,28,-99.99,,,-99.99,,2013-01-22 07:22:00,
2013-01-22 00:32:00,35.0,5.0,-100.00,ESE,110,3.0,17.0,28,-99.99,,,-99.99,,2013-01-22 07:32:00,
2013-01-22 00:42:00,35.0,5.0,-100.00,South,190,12.0,27.0,27,-99.99,,,-99.99,,2013-01-22 07:42:00,
2013-01-22 00:52:00,35.0,5.0,-100.00,SW,230,7.0,30.0,27,-99.99,,,-99.99,,2013-01-22 07:52:00,
2013-01-22 01:02:00,35.0,5.0,-100.00,WSW,250,5.0,24.0,27,-99.99,,,-99.99,,2013-01-22 08:02:00,
2013-01-22 01:12:00,35.0,4.0,-100.00,WSW,250,6.0,19.0,26,-99.99,,,-99.99,,2013-01-22 08:12:00,
2013-01-22 01:22:00,35.0,4.0,-100.00,NW,310,6.0,25.0,26,-99.99,,,-99.99,,2013-01-22 08:22:00,
2013-01-22 01:32:00,36.0,5.0,-100.00,NNW,330,6.0,24.0,26,-99.99,,,-99.99,,2013-01-22 08:32:00,
2013-01-22 01:42:00,35.0,4.0,-100.00,SSE,160,3.0,15.0,26,-99.99,,,-99.99,,2013-01-22 08:42:00,
2013-01-22 01:52:00,35.0,4.0,-100.00,North,350,7.0,25.0,26,-99.99,,,-99.99,,2013-01-22 08:52:00,
2013-01-22 02:02:00,35.0,3.0,-100.00,SW,230,8.0,16.0,26,-99.99,,,-99.99,,2013-01-22 09:02:00,
2013-01-22 02:12:00,34.0,3.0,-100.00,West,270,6.0,17.0,26,-99.99,,,-99.99,,2013-01-22 09:12:00,
2013-01-22 02:22:00,33.0,3.0,-100.00,NNE,20,3.0,19.0,27,-99.99,,,-99.99,,2013-01-22 09:22:00,
2013-01-22 02:32:00,34.0,4.0,-100.00,NW,310,12.0,25.0,27,-99.99,,,-99.99,,2013-01-22 09:32:00,
2013-01-22 02:42:00,35.0,5.0,-100.00,WSW,240,9.0,21.0,26,-99.99,,,-99.99,,2013-01-22 09:42:00,
2013-01-22 02:52:00,35.0,4.0,-100.00,SSE,150,6.0,28.0,26,-99.99,,,-99.99,,2013-01-22 09:52:00,
2013-01-22 03:02:00,35.0,4.0,-100.00,SW,225,12.0,29.0,26,-99.99,,,-99.99,,2013-01-22 10:02:00,
2013-01-22 03:12:00,35.0,4.0,-100.00,SW,225,11.0,40.0,26,-99.99,,,-99.99,,2013-01-22 10:12:00,
2013-01-22 03:22:00,35.0,4.0,-100.00,ENE,60,4.0,37.0,26,-99.99,,,-99.99,,2013-01-22 10:22:00,
2013-01-22 03:32:00,35.0,4.0,-100.00,North,0,6.0,17.0,25,-99.99,,,-99.99,,2013-01-22 10:32:00,
2013-01-22 03:42:00,36.0,4.0,-100.00,NNE,15,9.0,43.0,25,-99.99,,,-99.99,,2013-01-22 10:42:00,
2013-01-22 03:52:00,36.0,4.0,-100.00,NW,310,7.0,29.0,25,-99.99,,,-99.99,,2013-01-22 10:52:00,
2013-01-22 04:02:00,35.0,4.0,-100.00,NW,325,6.0,22.0,25,-99.99,,,-99.99,,2013-01-22 11:02:00,
2013-01-22 04:12:00,38.0,5.0,-100.00,West,265,9.0,29.0,25,-99.99,,,-99.99,,2013-01-22 11:12:00,
2013-01-22 04:22:00,38.0,5.0,-100.00,West,280,17.0,42.0,24,-99.99,,,-99.99,,2013-01-22 11:22:00,
2013-01-22 04:33:00,38.0,5.0,-100.00,North,0,9.0,33.0,24,-99.99,,,-99.99,,2013-01-22 11:33:00,
2013-01-22 04:42:00,38.0,4.0,-100.00,West,260,7.0,30.0,23,-99.99,,,-99.99,,2013-01-22 11:42:00,
2013-01-22 04:53:00,38.0,4.0,-100.00,West,275,11.0,34.0,23,-99.99,,,-99.99,,2013-01-22 11:53:00,
2013-01-22 05:03:00,38.0,4.0,-100.00,NW,315,11.0,40.0,23,-99.99,,,-99.99,,2013-01-22 12:03:00,
2013-01-22 05:12:00,37.0,3.0,-100.00,SSW,200,6.0,24.0,23,-99.99,,,-99.99,,2013-01-22 12:12:00,
2013-01-22 05:23:00,37.0,3.0,-100.00,NNW,330,4.0,31.0,23,-99.99,,,-99.99,,2013-01-22 12:23:00,
2013-01-22 05:43:00,36.0,2.0,-100.00,NNW,330,6.0,15.0,23,-99.99,,,-99.99,,2013-01-22 12:43:00,
2013-01-22 05:52:00,37.0,3.0,-100.00,North,350,11.0,25.0,23,-99.99,,,-99.99,,2013-01-22 12:52:00,
2013-01-22 06:03:00,37.0,3.0,-100.00,NNW,335,10.0,24.0,23,-99.99,,,-99.99,,2013-01-22 13:03:00,
2013-01-22 06:13:00,37.0,2.0,-100.00,NNE,25,9.0,24.0,23,-99.99,,,-99.99,,2013-01-22 13:13:00,
2013-01-22 06:23:00,36.0,2.0,-100.00,North,0,9.0,21.0,23,-99.99,,,-99.99,,2013-01-22 13:23:00,
2013-01-22 06:33:00,36.0,2.0,-100.00,North,10,10.0,32.0,23,-99.99,,,-99.99,,2013-01-22 13:33:00,
2013-01-22 06:43:00,36.0,2.0,-100.00,NE,45,9.0,26.0,23,-99.99,,,-99.99,,2013-01-22 13:43:00,
2013-01-22 06:53:00,35.0,2.0,-100.00,NNE,30,6.0,24.0,23,-99.99,,,-99.99,,2013-01-22 13:53:00,
2013-01-22 07:03:00,36.0,2.0,-100.00,North,5,9.0,27.0,23,-99.99,,,-99.99,,2013-01-22 14:03:00,
2013-01-22 07:12:00,34.0,1.0,-100.00,NE,55,11.0,20.0,24,-99.99,,,-99.99,,2013-01-22 14:12:00,
2013-01-22 07:23:00,34.0,1.0,-100.00,East,80,8.0,21.0,24,-99.99,,,-99.99,,2013-01-22 14:23:00,
2013-01-22 07:33:00,34.0,1.0,-100.00,SW,220,9.0,20.0,24,-99.99,,,-99.99,,2013-01-22 14:33:00,
2013-01-22 07:43:00,34.0,1.0,-100.00,SW,220,9.0,20.0,24,-99.99,,,-99.99,,2013-01-22 14:43:00,
2013-01-22 07:53:00,36.0,3.0,-100.00,WNW,285,6.0,22.0,24,-99.99,,,-99.99,,2013-01-22 14:53:00,
2013-01-22 08:03:00,36.0,3.0,-100.00,NW,310,10.0,27.0,24,-99.99,,,-99.99,,2013-01-22 15:03:00,
2013-01-22 08:12:00,36.0,2.0,-100.00,West,275,9.0,20.0,23,-99.99,,,-99.99,,2013-01-22 15:12:00,
2013-01-22 08:23:00,35.0,2.0,-100.00,NW,315,10.0,25.0,24,-99.99,,,-99.99,,2013-01-22 15:23:00,
2013-01-22 08:34:00,35.0,2.0,-100.00,WSW,240,10.0,25.0,24,-99.99,,,-99.99,,2013-01-22 15:34:00,
2013-01-22 08:43:00,35.0,2.0,-100.00,WSW,240,10.0,25.0,24,-99.99,,,-99.99,,2013-01-22 15:43:00,
2013-01-22 08:52:00,36.0,2.0,-100.00,NNW,340,8.0,17.0,24,-99.99,,,-99.99,,2013-01-22 15:52:00,
2013-01-22 09:03:00,36.0,2.0,-100.00,NNE,30,6.0,26.0,23,-99.99,,,-99.99,,2013-01-22 16:03:00,
2013-01-22 09:13:00,36.0,2.0,-100.00,West,270,5.0,25.0,23,-99.99,,,-99.99,,2013-01-22 16:13:00,
2013-01-22 09:23:00,37.0,2.0,-100.00,North,0,10.0,32.0,23,-99.99,,,-99.99,,2013-01-22 16:23:00,
2013-01-22 09:33:00,36.0,2.0,-100.00,WNW,300,4.0,29.0,23,-99.99,,,-99.99,,2013-01-22 16:33:00,
2013-01-22 09:43:00,37.0,3.0,-100.00,SW,215,9.0,31.0,23,-99.99,,,-99.99,,2013-01-22 16:43:00,
2013-01-22 09:53:00,37.0,3.0,-100.00,SW,215,9.0,31.0,23,-99.99,,,-99.99,,2013-01-22 16:53:00,
2013-01-22 10:03:00,37.0,3.0,-100.00,SW,215,9.0,31.0,23,-99.99,,,-99.99,,2013-01-22 17:03:00,
2013-01-22 10:12:00,37.0,3.0,-100.00,NW,315,14.0,23.0,23,-99.99,,,-99.99,,2013-01-22 17:12:00,
2013-01-22 10:23:00,37.0,3.0,-100.00,West,270,8.0,21.0,23,-99.99,,,-99.99,,2013-01-22 17:23:00,
2013-01-22 10:33:00,38.0,4.0,-100.00,WNW,285,12.0,29.0,23,-99.99,,,-99.99,,2013-01-22 17:33:00,
2013-01-22 10:44:00,38.0,4.0,-100.00,SW,235,6.0,20.0,23,-99.99,,,-99.99,,2013-01-22 17:44:00,
2013-01-22 10:53:00,39.0,4.0,-100.00,West,280,6.0,17.0,23,-99.99,,,-99.99,,2013-01-22 17:53:00,
2013-01-22 11:03:00,39.0,4.0,-100.00,SW,230,9.0,24.0,22,-99.99,,,-99.99,,2013-01-22 18:03:00,
2013-01-22 11:12:00,40.0,5.0,-100.00,West,280,11.0,23.0,22,-99.99,,,-99.99,,2013-01-22 18:12:00,
2013-01-22 11:23:00,40.0,5.0,-100.00,SW,235,6.0,32.0,22,-99.99,,,-99.99,,2013-01-22 18:23:00,
2013-01-22 11:33:00,40.0,5.0,-100.00,SW,230,11.0,27.0,22,-99.99,,,-99.99,,2013-01-22 18:33:00,
2013-01-22 11:43:00,40.0,5.0,-100.00,SSW,205,9.0,31.0,22,-99.99,,,-99.99,,2013-01-22 18:43:00,
2013-01-22 11:53:00,41.0,5.0,-100.00,SW,235,12.0,23.0,22,-99.99,,,-99.99,,2013-01-22 18:53:00,
2013-01-22 12:03:00,41.0,5.0,-100.00,SW,230,7.0,27.0,22,-99.99,,,-99.99,,2013-01-22 19:03:00,
2013-01-22 12:13:00,40.0,5.0,-100.00,WNW,290,11.0,29.0,22,-99.99,,,-99.99,,2013-01-22 19:13:00,
2013-01-22 12:23:00,40.0,5.0,-100.00,WNW,285,10.0,24.0,22,-99.99,,,-99.99,,2013-01-22 19:23:00,
2013-01-22 12:43:00,41.0,5.0,-100.00,WNW,300,11.0,22.0,22,-99.99,,,-99.99,,2013-01-22 19:43:00,
2013-01-22 12:53:00,41.0,5.0,-100.00,WNW,300,18.0,37.0,22,-99.99,,,-99.99,,2013-01-22 19:53:00,
2013-01-22 13:03:00,41.0,5.0,-100.00,WNW,300,18.0,37.0,22,-99.99,,,-99.99,,2013-01-22 20:03:00,
2013-01-22 13:12:00,41.0,5.0,-100.00,WNW,300,18.0,37.0,22,-99.99,,,-99.99,,2013-01-22 20:12:00,
2013-01-22 13:23:00,41.0,5.0,-100.00,WNW,300,18.0,37.0,22,-99.99,,,-99.99,,2013-01-22 20:23:00,
2013-01-22 13:33:00,42.0,6.0,-100.00,NW,310,9.0,25.0,22,-99.99,,,-99.99,,2013-01-22 20:33:00,
2013-01-22 13:42:00,42.0,6.0,-100.00,WNW,300,10.0,29.0,21,-99.99,,,-99.99,,2013-01-22 20:42:00,
2013-01-22 13:53:00,42.0,6.0,-100.00,WNW,285,14.0,24.0,22,-99.99,,,-99.99,,2013-01-22 20:53:00,
2013-01-22 14:03:00,42.0,6.0,-100.00,NW,320,9.0,25.0,22,-99.99,,,-99.99,,2013-01-22 21:03:00,
2013-01-22 14:13:00,42.0,6.0,-100.00,NW,315,15.0,33.0,22,-99.99,,,-99.99,,2013-01-22 21:13:00,
2013-01-22 14:22:00,42.0,6.0,-100.00,West,260,7.0,26.0,22,-99.99,,,-99.99,,2013-01-22 21:22:00,
2013-01-22 14:33:00,43.0,7.0,-100.00,West,260,7.0,24.0,22,-99.99,,,-99.99,,2013-01-22 21:33:00,
2013-01-22 14:52:00,42.0,6.0,-100.00,WNW,285,10.0,23.0,22,-99.99,,,-99.99,,2013-01-22 21:52:00,
2013-01-22 15:02:00,42.0,6.0,-100.00,WNW,285,13.0,23.0,21,-99.99,,,-99.99,,2013-01-22 22:02:00,
2013-01-22 15:12:00,42.0,6.0,-100.00,NW,305,10.0,23.0,21,-99.99,,,-99.99,,2013-01-22 22:12:00,
2013-01-22 15:22:00,42.0,6.0,-100.00,WNW,290,10.0,24.0,21,-99.99,,,-99.99,,2013-01-22 22:22:00,
2013-01-22 15:43:00,42.0,5.0,-100.00,WNW,295,12.0,27.0,21,-99.99,,,-99.99,,2013-01-22 22:43:00,
2013-01-22 15:53:00,42.0,5.0,-100.00,NNE,20,5.0,18.0,21,-99.99,,,-99.99,,2013-01-22 22:53:00,
2013-01-22 16:02:00,42.0,6.0,-100.00,NNW,335,4.0,18.0,21,-99.99,,,-99.99,,2013-01-22 23:02:00,
2013-01-22 16:12:00,42.0,5.0,-100.00,SW,215,4.0,12.0,21,-99.99,,,-99.99,,2013-01-22 23:12:00,
2013-01-22 16:23:00,42.0,4.0,-100.00,WSW,240,11.0,32.0,20,-99.99,,,-99.99,,2013-01-22 23:23:00,
2013-01-22 16:33:00,42.0,4.0,-100.00,West,270,7.0,25.0,20,-99.99,,,-99.99,,2013-01-22 23:33:00,
2013-01-22 16:42:00,42.0,4.0,-100.00,NNW,330,12.0,32.0,20,-99.99,,,-99.99,,2013-01-22 23:42:00,
2013-01-22 16:52:00,42.0,4.0,-100.00,NW,310,9.0,24.0,20,-99.99,,,-99.99,,2013-01-22 23:52:00,
2013-01-22 17:03:00,41.0,3.0,-100.00,WNW,285,9.0,32.0,19,-99.99,,,-99.99,,2013-01-23 00:03:00,
2013-01-22 17:12:00,41.0,2.0,-100.00,WNW,300,7.0,24.0,19,-99.99,,,-99.99,,2013-01-23 00:12:00,
2013-01-22 17:22:00,40.0,2.0,-100.00,NW,315,4.0,19.0,19,-99.99,,,-99.99,,2013-01-23 00:22:00,
2013-01-22 17:33:00,41.0,2.0,-100.00,West,280,4.0,16.0,19,-99.99,,,-99.99,,2013-01-23 00:33:00,
2013-01-22 17:42:00,41.0,3.0,-100.00,WNW,285,6.0,24.0,19,-99.99,,,-99.99,,2013-01-23 00:42:00,
2013-01-22 17:52:00,41.0,2.0,-100.00,NW,310,7.0,21.0,19,-99.99,,,-99.99,,2013-01-23 00:52:00,
2013-01-22 18:03:00,40.0,1.0,-100.00,NW,305,13.0,23.0,19,-99.99,,,-99.99,,2013-01-23 01:03:00,
2013-01-22 18:13:00,39.0,1.0,-100.00,NW,315,5.0,24.0,19,-99.99,,,-99.99,,2013-01-23 01:13:00,
2013-01-22 18:22:00,38.0,0.0,-100.00,North,10,2.0,11.0,20,-99.99,,,-99.99,,2013-01-23 01:22:00,
2013-01-22 18:33:00,37.0,0.0,-100.00,NNE,15,6.0,11.0,20,-99.99,,,-99.99,,2013-01-23 01:33:00,
2013-01-22 18:43:00,37.0,1.0,-100.00,NE,55,2.0,11.0,20,-99.99,,,-99.99,,2013-01-23 01:43:00,
2013-01-22 18:52:00,38.0,1.0,-100.00,North,0,9.0,17.0,20,-99.99,,,-99.99,,2013-01-23 01:52:00,
2013-01-22 19:03:00,39.0,1.0,-100.00,West,270,7.0,16.0,20,-99.99,,,-99.99,,2013-01-23 02:03:00,
2013-01-22 19:12:00,39.0,1.0,-100.00,North,0,3.0,16.0,20,-99.99,,,-99.99,,2013-01-23 02:12:00,
2013-01-22 19:23:00,39.0,1.0,-100.00,North,5,7.0,18.0,20,-99.99,,,-99.99,,2013-01-23 02:23:00,
2013-01-22 19:33:00,40.0,1.0,-100.00,NNW,330,4.0,14.0,19,-99.99,,,-99.99,,2013-01-23 02:33:00,
2013-01-22 19:42:00,40.0,2.0,-100.00,West,270,9.0,24.0,19,-99.99,,,-99.99,,2013-01-23 02:42:00,
2013-01-22 19:53:00,40.0,1.0,-100.00,WNW,295,4.0,24.0,19,-99.99,,,-99.99,,2013-01-23 02:53:00,
2013-01-22 20:03:00,40.0,1.0,-100.00,WNW,300,9.0,29.0,19,-99.99,,,-99.99,,2013-01-23 03:03:00,
2013-01-22 20:12:00,40.0,1.0,-100.00,NNW,335,10.0,25.0,19,-99.99,,,-99.99,,2013-01-23 03:12:00,
2013-01-22 20:23:00,40.0,1.0,-100.00,NW,305,6.0,21.0,18,-99.99,,,-99.99,,2013-01-23 03:23:00,
2013-01-22 20:32:00,40.0,1.0,-100.00,WSW,245,4.0,24.0,18,-99.99,,,-99.99,,2013-01-23 03:32:00,
2013-01-22 20:42:00,40.0,1.0,-100.00,SW,225,7.0,19.0,18,-99.99,,,-99.99,,2013-01-23 03:42:00,
2013-01-22 20:52:00,40.0,0.0,-100.00,NW,315,11.0,22.0,18,-99.99,,,-99.99,,2013-01-23 03:52:00,
2013-01-22 21:03:00,39.0,0.0,-100.00,SW,235,7.0,21.0,18,-99.99,,,-99.99,,2013-01-23 04:03:00,
2013-01-22 21:12:00,39.0,0.0,-100.00,SW,225,7.0,19.0,18,-99.99,,,-99.99,,2013-01-23 04:12:00,
2013-01-22 21:22:00,38.0,-1.0,-100.00,SW,215,6.0,17.0,18,-99.99,,,-99.99,,2013-01-23 04:22:00,
2013-01-22 21:32:00,38.0,-1.0,-100.00,SW,230,7.0,18.0,18,-99.99,,,-99.99,,2013-01-23 04:32:00,
2013-01-22 21:43:00,37.0,-2.0,-100.00,South,180,6.0,9.0,18,-99.99,,,-99.99,,2013-01-23 04:43:00,
2013-01-22 21:52:00,36.0,-2.0,-100.00,SW,220,4.0,7.0,19,-99.99,,,-99.99,,2013-01-23 04:52:00,
2013-01-22 22:03:00,35.0,-2.0,-100.00,SSW,205,6.0,12.0,19,-99.99,,,-99.99,,2013-01-23 05:03:00,
2013-01-22 22:12:00,36.0,-1.0,-100.00,SW,230,6.0,13.0,20,-99.99,,,-99.99,,2013-01-23 05:12:00,
2013-01-22 22:22:00,37.0,-1.0,-100.00,SW,230,4.0,13.0,20,-99.99,,,-99.99,,2013-01-23 05:22:00,
2013-01-22 22:33:00,37.0,0.0,-100.00,SW,235,7.0,13.0,20,-99.99,,,-99.99,,2013-01-23 05:33:00,
2013-01-22 22:43:00,38.0,0.0,-100.00,SSW,205,7.0,17.0,19,-99.99,,,-99.99,,2013-01-23 05:43:00,
2013-01-22 22:52:00,37.0,0.0,-100.00,SSW,210,9.0,16.0,19,-99.99,,,-99.99,,2013-01-23 05:52:00,
2013-01-22 23:02:00,40.0,1.0,-100.00,SW,235,8.0,23.0,19,-99.99,,,-99.99,,2013-01-23 06:02:00,
2013-01-22 23:12:00,39.0,1.0,-100.00,SW,230,7.0,19.0,19,-99.99,,,-99.99,,2013-01-23 06:12:00,
2013-01-22 23:22:00,39.0,1.0,-100.00,SSW,210,7.0,21.0,18,-99.99,,,-99.99,,2013-01-23 06:22:00,
2013-01-22 23:42:00,40.0,1.0,-100.00,SW,230,11.0,19.0,18,-99.99,,,-99.99,,2013-01-23 06:42:00,
2013-01-22 23:52:00,40.0,0.0,-100.00,SSW,210,7.0,19.0,18,-99.99,,,-99.99,,2013-01-23 06:52:00,